Regional Weather Roundup
Issued by NWS Charleston, SC

Current Version | Previous Version | Graphics & Text | Print | Product List | Glossary On
Versions: 1 2 3 4 5 6 7 8 9 10 11 12 13 14 15 16 17 18 19 20 21 22 23 24 25 26 27 28 29 30 31 32 33 34 35 36 37 38 39 40 41 42 43 44 45 46 47 48 49 50
344 ASUS42 KCHS 171712 RWRCHS REGIONAL WEATHER ROUNDUP NATIONAL WEATHER SERVICE CHARLESTON SC 1200 PM EST FRI NOV 17 2017 NOTE: "FAIR" INDICATES FEW OR NO CLOUDS BELOW 12,000 FEET WITH NO SIGNIFICANT WEATHER AND/OR OBSTRUCTIONS TO VISIBILITY. NOT ALL STATIONS ARE QUALITY CONTROLLED. USE DATA WITH CAUTION... ESPECIALLY DEWPOINT OBSERVATIONS. SCZ027-030-031-034>040-042>050-171800- ...SOUTHEAST SOUTH CAROLINA... CITY SKY/WX TMP DP RH WIND PRES REMARKS N CHARLESTON SUNNY 61 37 41 NE7 30.19F WATERFRONT PRK N/A 58 46 64 E7 30.04F JOHNS ISLAND FAIR 61 45 55 NE10 30.19F PINOPOLIS N/A 55 37 50 NE7 30.12F MONCKS CORNER FAIR 59 32 36 E6 30.19F SUMMERVILLE FAIR 59 36 41 CALM 30.20F BEAUFORT MCAS SUNNY 63 40 42 E7 30.19F BEAUFORT ARPT FAIR 61 37 41 NE8 30.19S HILTON HEAD IS SUNNY 63 46 55 NE9 30.19F WALTERBORO SUNNY 61 36 39 N5 30.20F ALLENDALE FAIR 61 36 39 VRB5 30.19F ...SOUTHERN MIDLANDS AND PEE DEE... CITY SKY/WX TMP DP RH WIND PRES REMARKS GEORGETOWN FAIR 57 36 44 NE9 30.21F KINGSTREE FAIR 55 32 41 NE3 30.20F ORANGEBURG SUNNY 59 33 37 SE3 30.20F BARNWELL N/A 63 34 34 E7 30.20F AIKEN FAIR 57 32 38 E6 30.23F MANNING FAIR 59 36 41 MISG 30.20F COLUMBIA MOSUNNY 61 34 36 VRB5 30.21F SUMTER SUNNY 58 33 39 NE6 30.18F FLORENCE SUNNY 56 34 43 VRB7 30.21F MYRTLE BEACH SUNNY 56 35 45 N7 30.22F N MYRTLE BEACH SUNNY 56 35 45 NE9 30.20F $$ GAZ063-065-086>088-099>101-113>116-118-119-134>141-150-171800- ...SOUTHEAST GEORGIA... CITY SKY/WX TMP DP RH WIND PRES REMARKS SAVANNAH ARPT SUNNY 66 43 43 E9 30.18F HUNTER AAF SUNNY 66 48 52 NE9 30.14F FORT STEWART SUNNY 67 44 43 SE6 30.15F STATESBORO SUNNY 64 31 28 NE5 30.19F SYLVANIA SUNNY 64 39 40 E3 30.20F CLAXTON N/A 68 40 35 NE5 30.18F ...CSRA...CENTRAL AND FAR SOUTHEAST GEORGIA... CITY SKY/WX TMP DP RH WIND PRES REMARKS THOMSON SUNNY 61 35 37 SE7 30.24F AUGUSTA-BUSH SUNNY 63 32 31 NE7 30.20F AUGUSTA-DANIEL SUNNY 62 33 33 E6 30.20F SWAINSBORO FAIR 64 36 34 NE6 30.19F VIDALIA SUNNY 68 41 37 E5 30.18F EASTMAN FAIR 68 33 27 E5 30.20F HAZLEHURST FAIR 67 35 30 E6 30.16F ALMA SUNNY 69 47 45 VRB6 30.16F WAYCROSS SUNNY 69 40 34 E8 30.16F JESUP FAIR 70 46 43 NE6 30.16F BAXLEY FAIR 64 45 48 E7 30.17F BRUNSWICK MOSUNNY 66 54 63 NE13 30.16F SAINT SIMONS SUNNY 70 55 59 NE12 30.15F $$ SCZ027-028-034-036>038-045-046-048>050-GAZ119-141-171800- ...LAKE AND SUPPLEMENTAL COASTAL OBSERVATIONS... STATION/POSITION TIME TEMP WIND PRES WAVE SWELL AIR SEA DIR/SP/G HT/PER HT/PER/DIR (UTC) (F) (DEG/KT/KT) (MB) (FT/S) (FT/S/D) WINYAH BAY 1545 51 50/ 13 1023.0 LAKE MURRAY 1620 55 110/ 2/ 4 1022.7 ACE BASIN NERRS 1545 60 50/ 6 1022.0 FORT PULASKI 1636 59 62 70/ 14/ 16 1022.4F SAPELO ISLAND 1600 67 40/ 10 1022.0 $$ ANZ835-935-AMZ111-154-330-350-352-354-370-450-454-472-171800- ...C-MAN AND BUOY OBSERVATIONS... STATION/POSITION TIME TEMP WIND PRES WAVE SWELL AIR SEA DIR/SP/G HT/PER HT/PER/DIR (UTC) (F) (DEG/KT/KT) (MB) (FT/S) (FT/S/D) BUOY 41004 1650 63 75 40/ 17/ 21 1020.9F 6/ 6 2/ 80/11 BUOY 41008 1550 66 69 60/ 14/ 16 1020.9 3/ 9 2/100/ 9 FOLLY BEACH CMAN 1600 56 40/ 16/ 19 1023.0S CAPERS NEARSHORE 1608 54 63 50/ 19/ 25 1022.1R FRIPP NEARSHORE 1608 57 63 50/ 12/ 23 1022.0R STATION/POSITION TIME TEMP WIND PRES WAVE SWELL AIR SEA DIR/SP/G HT/PER HT/PER/DIR (UTC) (F) (DEG/KT/KT) (MB) (FT/S) (FT/S/D) 5E ST. MARYS GA 1700 65 N/A 3/11 2/100/11 FRYING PAN BUOY 1650 57 71 30/ 17/ 21 1021.5F 6/ 6 2/110/11 BUOY 41025 1650 54 64 360/ 17/ 21 1021.1F 5/11 3/ 70/11 CAPE LOOKOUT NC 1600 50 10/ 14/ 19 1022.8F BUOY 41002 1650 70 77 30/ 16/ 19 1018.0F 8/11 5/ 60/11 BUOY 41010 NOT AVBL ST AUGUSTINE FL 1700 68 67 10/ 10/ 11 1020.1F $$

USA.gov is the U.S. government's official web portal to all federal, state and local government web resources and services.